Orbital Elements at Epoch 2459200.5 (2020-Dec-17.0) TDB
Reference: JPL 21 (heliocentric ecliptic J2000)
Element | Value | Uncertainty (1-sigma) | Units |
e | .1346755530180541 | 4.6455e-08 | |
a | 2.760169573239016 | 1.7431e-08 | au |
q | 2.388442209539445 | 1.2792e-07 | au |
i | 13.59777267533693 | 5.8521e-06 | deg |
node | 224.5064452790789 | 1.6385e-05 | deg |
peri | 197.4017704270465 | 2.4219e-05 | deg |
M | 213.097911871628 | 1.9989e-05 | deg |
tp | 2459883.982723567660 (2022-Oct-31.48272357) | 9.6323e-05 | TDB |
period | 1674.95087114991 4.59 | 1.5867e-05 4.344e-08 | d yr |
n | .2149316772215819 | 2.036e-09 | deg/d |
Q | 3.131896936938587 | 1.9779e-08 | au |
|
| | Orbit Determination Parameters
Additional Information
|